Change the Weather History Date:

Saturday, September 1, 2012

  Actual Average Record
Temperature  
Mean Temperature 60 °F -  
Max Temperature 75 °F 75 °F 95 °F (1998)
Min Temperature 46 °F 47 °F 35 °F (2008)
Degree Days  
Heating Degree Days 4    
Growing Degree Days 10 (Base 50)    
Moisture  
Dew Point 35 °F    
Average Humidity 42    
Maximum Humidity 71    
Minimum Humidity 18    
Precipitation  
Precipitation 0.00 in - - ()
Sea Level Pressure  
Sea Level Pressure 29.96 in    
Wind  
Wind Speed 7 mph (SW)    
Max Wind Speed 18 mph    
Max Gust Speed 23 mph    
Visibility 10 miles    
Events      
Averages and records for this station are not official NWS values.
T = Trace of Precipitation, MM = Missing Value Source: NWS Daily Summary

Daily Weather History Graph

Daily Weather History Graph

Search for Another Location

Airport or City:

Trip Planner

Search our weather history database for the weather conditions in past years. The results will help you decide how hot, cold, wet, or windy it might be!

Date:

Astronomy

Sep. 01, 2012 Rise Set
Actual Time 6:06 AM PDT 7:26 PM PDT
Civil Twilight 5:34 AM PDT 7:58 PM PDT
Nautical Twilight 4:55 AM PDT 8:37 PM PDT
Astronomical Twilight 4:13 AM PDT 9:18 PM PDT
Moon 7:33 PM PDT (9/1) 7:28 AM PDT (9/1)
Length of Visible Light 14h 24m
Length of Day
13h 20m
Full, 98% of the Moon is Illuminated
Sep 1
Full
Sep 8
Last Quarter
Sep 15
New
Sep 22
First Quarter
Sep 29
Full

Hourly Weather History & Observations

Time (PDT) Temp. Windchill Dew Point Humidity Pressure Visibility Wind Dir Wind Speed Gust Speed Precip Events Conditions
12:15 AM 57.2 °F - 44.6 °F 63% 29.83 in 10.0 mi SSE 5.8 mph - N/A   Clear
12:35 AM 57.2 °F - 44.6 °F 63% 29.83 in 10.0 mi Calm Calm - N/A   Clear
12:55 AM 57.2 °F - 42.8 °F 59% 29.84 in 10.0 mi West 4.6 mph - N/A   Clear
1:15 AM 55.4 °F - 42.8 °F 63% 29.84 in 10.0 mi SSE 8.1 mph - N/A   Clear
1:35 AM 60.8 °F - 44.6 °F 55% 29.84 in 10.0 mi SSE 8.1 mph - N/A   Clear
1:55 AM 59.0 °F - 44.6 °F 59% 29.84 in 10.0 mi SSE 9.2 mph - N/A   Clear
2:15 AM 59.0 °F - 44.6 °F 59% 29.84 in 10.0 mi SSE 5.8 mph - N/A   Clear
2:35 AM 59.0 °F - 42.8 °F 55% 29.85 in 10.0 mi Calm Calm - N/A   Clear
2:55 AM 57.2 °F - 42.8 °F 59% 29.85 in 10.0 mi Calm Calm - N/A   Clear
3:15 AM 55.4 °F - 42.8 °F 63% 29.86 in 10.0 mi Calm Calm - N/A   Clear
3:35 AM 50.0 °F - 41.0 °F 71% 29.86 in 10.0 mi Calm Calm - N/A   Clear
3:55 AM 50.0 °F - 39.2 °F 66% 29.87 in 10.0 mi West 3.5 mph - N/A   Clear
4:15 AM 48.2 °F - 39.2 °F 71% 29.88 in 10.0 mi SW 6.9 mph - N/A   Clear
4:35 AM 50.0 °F - 39.2 °F 66% 29.88 in 10.0 mi SSW 5.8 mph - N/A   Clear
4:55 AM 53.6 °F - 39.2 °F 58% 29.88 in 10.0 mi South 6.9 mph - N/A   Clear
5:15 AM 55.4 °F - 39.2 °F 54% 29.89 in 10.0 mi South 11.5 mph - N/A   Clear
5:35 AM 51.8 °F - 37.4 °F 58% 29.90 in 10.0 mi South 9.2 mph - N/A   Clear
5:55 AM 48.2 °F - 37.4 °F 66% 29.92 in 10.0 mi SW 4.6 mph - N/A   Clear
6:15 AM 46.4 °F 43.5 °F 35.6 °F 66% 29.93 in 10.0 mi SSW 5.8 mph - N/A   Clear
6:35 AM 51.8 °F - 37.4 °F 58% 29.94 in 10.0 mi WSW 6.9 mph - N/A   Clear
6:55 AM 51.8 °F - 37.4 °F 58% 29.95 in 10.0 mi WSW 8.1 mph - N/A   Clear
7:15 AM 53.6 °F - 37.4 °F 54% 29.96 in 10.0 mi Calm Calm - N/A   Clear
7:35 AM 53.6 °F - 37.4 °F 54% 29.96 in 10.0 mi SSW 5.8 mph - N/A   Clear
7:55 AM 55.4 °F - 37.4 °F 51% 29.97 in 10.0 mi SSE 8.1 mph - N/A   Clear
8:15 AM 57.2 °F - 37.4 °F 48% 29.98 in 10.0 mi South 10.4 mph - N/A   Clear
8:35 AM 57.2 °F - 39.2 °F 51% 29.99 in 10.0 mi WNW 6.9 mph - N/A   Clear
8:55 AM 57.2 °F - 37.4 °F 48% 29.99 in 10.0 mi SSW 4.6 mph - N/A   Clear
9:15 AM 57.2 °F - 37.4 °F 48% 30.00 in 10.0 mi SSE 6.9 mph - N/A   Clear
9:35 AM 59.0 °F - 37.4 °F 45% 30.01 in 10.0 mi SSW 4.6 mph - N/A   Clear
9:55 AM 60.8 °F - 39.2 °F 45% 30.01 in 10.0 mi SSW 9.2 mph - N/A   Clear
10:15 AM 62.6 °F - 37.4 °F 39% 30.01 in 10.0 mi South 8.1 mph - N/A   Clear
10:35 AM 62.6 °F - 37.4 °F 39% 30.01 in 10.0 mi SSE 6.9 mph - N/A   Clear
11:15 AM 66.2 °F - 39.2 °F 37% 30.01 in 10.0 mi SW 8.1 mph - N/A   Clear
11:35 AM 66.2 °F - 37.4 °F 35% 30.01 in 10.0 mi SSW 5.8 mph - N/A   Clear
11:55 AM 68.0 °F - 37.4 °F 33% 30.02 in 10.0 mi WSW 8.1 mph - N/A   Clear
12:15 PM 69.8 °F - 37.4 °F 31% 30.01 in 10.0 mi West 11.5 mph 16.1 mph N/A   Clear
12:35 PM 69.8 °F - 37.4 °F 31% 30.01 in 10.0 mi SW 13.8 mph 18.4 mph N/A   Clear
12:55 PM 71.6 °F - 37.4 °F 29% 30.02 in 10.0 mi SW 10.4 mph 20.7 mph N/A   Clear
1:15 PM 71.6 °F - 35.6 °F 27% 30.01 in 10.0 mi West 13.8 mph 19.6 mph N/A   Clear
1:35 PM 71.6 °F - 37.4 °F 29% 30.01 in 10.0 mi SW 11.5 mph - N/A   Clear
1:55 PM 73.4 °F - 35.6 °F 25% 30.01 in 10.0 mi SW 16.1 mph 20.7 mph N/A   Clear
2:15 PM 71.6 °F - 35.6 °F 27% 30.01 in 10.0 mi SW 11.5 mph 21.9 mph N/A   Clear
2:35 PM 73.4 °F - 35.6 °F 25% 30.00 in 10.0 mi SSW 10.4 mph - N/A   Clear
2:55 PM 73.4 °F - 35.6 °F 25% 29.99 in 10.0 mi SW 13.8 mph 19.6 mph N/A   Clear
3:15 PM 75.2 °F - 33.8 °F 22% 29.99 in 10.0 mi WSW 18.4 mph 23.0 mph N/A   Clear
3:35 PM 73.4 °F - 30.2 °F 20% 29.99 in 10.0 mi SW 15.0 mph 19.6 mph N/A   Clear
3:55 PM 73.4 °F - 30.2 °F 20% 29.98 in 10.0 mi WSW 12.7 mph 23.0 mph N/A   Clear
4:15 PM 73.4 °F - 30.2 °F 20% 29.98 in 10.0 mi SW 13.8 mph 21.9 mph N/A   Clear
4:35 PM 73.4 °F - 30.2 °F 20% 29.98 in 10.0 mi WSW 16.1 mph 21.9 mph N/A   Clear
4:55 PM 73.4 °F - 28.4 °F 19% 29.98 in 10.0 mi WSW 13.8 mph 20.7 mph N/A   Clear
5:15 PM 73.4 °F - 30.2 °F 20% 29.98 in 10.0 mi West 15.0 mph - N/A   Clear
5:35 PM 73.4 °F - 26.6 °F 18% 29.98 in 10.0 mi WSW 15.0 mph 20.7 mph N/A   Clear
5:55 PM 73.4 °F - 26.6 °F 18% 29.98 in 10.0 mi West 9.2 mph - N/A   Clear
6:15 PM 71.6 °F - 26.6 °F 19% 29.98 in 10.0 mi WSW 11.5 mph - N/A   Clear
6:35 PM 71.6 °F - 26.6 °F 19% 29.98 in 10.0 mi WSW 13.8 mph - N/A   Clear
6:55 PM 69.8 °F - 26.6 °F 20% 29.98 in 10.0 mi WSW 9.2 mph - N/A   Clear
7:15 PM 66.2 °F - 26.6 °F 23% 29.98 in 10.0 mi WSW 9.2 mph - N/A   Clear
7:35 PM 62.6 °F - 26.6 °F 26% 29.99 in 10.0 mi WSW 8.1 mph - N/A   Clear
7:55 PM 60.8 °F - 26.6 °F 27% 30.00 in 10.0 mi WSW 4.6 mph - N/A   Clear
8:15 PM 57.2 °F - 26.6 °F 31% 30.01 in 10.0 mi SW 3.5 mph - N/A   Clear
8:35 PM 55.4 °F - 26.6 °F 33% 30.02 in 10.0 mi Calm Calm - N/A   Clear
8:55 PM 57.2 °F - 28.4 °F 33% 30.02 in 10.0 mi Calm Calm - N/A   Clear
9:15 PM 57.2 °F - 30.2 °F 36% 30.02 in 10.0 mi Calm Calm - N/A   Clear
9:35 PM 55.4 °F - 32.0 °F 41% 30.02 in 10.0 mi Calm Calm - N/A   Clear
9:55 PM 55.4 °F - 30.2 °F 38% 30.02 in 10.0 mi Calm Calm - N/A   Clear
10:15 PM 55.4 °F - 30.2 °F 38% 30.03 in 10.0 mi Calm Calm - N/A   Clear
10:35 PM 55.4 °F - 32.0 °F 41% 30.03 in 10.0 mi SSE 6.9 mph - N/A   Clear
10:55 PM 55.4 °F - 33.8 °F 44% 30.03 in 10.0 mi Calm Calm - N/A   Clear
11:15 PM 53.6 °F - 33.8 °F 47% 30.04 in 10.0 mi Calm Calm - N/A   Clear
11:35 PM 53.6 °F - 33.8 °F 47% 30.04 in 10.0 mi Calm Calm - N/A   Clear
11:55 PM 50.0 °F - 30.2 °F 47% 30.04 in 10.0 mi ENE 4.6 mph - N/A   Clear